Regional Weather Roundup
Issued by NWS

Home | Current Version | Previous Version | Text Only | Print | Product List | Glossary On
Versions: 1 2 3 4 5 6 7 8 9 10 11 12 13 14 15 16 17 18 19 20 21 22 23 24 25 26 27 28 29 30 31 32 33 34 35 36 37 38 39 40 41 42 43 44 45 46 47 48 49 50
000
ASUS44 KEWX 250403
RWRTX
SOUTH TEXAS REGIONAL WEATHER ROUNDUP
NATIONAL WEATHER SERVICE AUSTIN/SAN ANTONIO TX
1100 PM CDT WED MAY 24 2017

NOTE: "FAIR" INDICATED FEW OR NO CLOUDS BELOW 12,000 FEET WITH NO
SIGNIFICANT WEATHER AND/OR OBSTRUCTIONS TO VISIBILITY.

* - THESE STATIONS ARE NOT NWS OR FAA STATIONS...AND ARE NOT SUBJECT
    TO NWS AND FAA QUALITY CONTROL.

TXZ171-172-183>190-250500-
TEXAS HILL COUNTRY AND EDWARDS PLATEAU

CITY           SKY/WX    TMP DP  RH WIND       PRES   REMARKS
JUNCTION       CLEAR     70  48  45 S8        29.78R
*LLANO         CLEAR     66  54  63 CALM      29.78R
BURNET         CLEAR     65  52  62 CALM      29.79R
*HORSESHOE BAY NOT AVBL
*KERRVILLE     CLEAR     69  51  53 SE5       29.80R
*FREDERICKSBRG CLEAR     67  47  47 SW5       29.79R
*ROCKSPRINGS   CLEAR     64  48  55 CALM      29.84R
*BOERNE STAGE  CLEAR     66  46  48 SW5       29.80R
*CASTROVILLE   CLEAR     65  55  69 CALM      29.78S
HONDO          CLEAR     65  57  75 CALM      29.77R
*UVALDE        CLEAR     65  54  66 CALM      29.78R
DEL RIO        CLEAR     73  51  46 E9        29.74R
LAUGHLIN AFB   CLEAR     68  56  65 SE7       29.75R
CARRIZO SPRGS  CLEAR     70  52  52 S5        29.75R
*EAGLE PASS    NOT AVBL
$$

TXZ173-191>194-202-209-217>225-228-250500-
CENTRAL AND SOUTH CENTRAL TEXAS

CITY           SKY/WX    TMP DP  RH WIND       PRES   REMARKS
GEORGETOWN     CLEAR     72  48  43 SE5       29.76R
AUSTIN/BERGSTM CLEAR     63  56  78 S3        29.76R
AUSTIN/MABRY   CLEAR     70  53  54 CALM      29.77R
*AUSTIN/EXEC   CLEAR     70  54  56 CALM      29.76R
*LAGO VISTA    CLEAR     73  49  41 S6        29.78R
SAN MARCOS     CLEAR     64  54  68 CALM      29.77R
NEW BRAUNFELS  CLEAR     65  54  67 SW8       29.76R
RANDOLPH AFB   CLEAR     71  48  43 S3        29.77R
PT SAN ANTONIO CLEAR     64  52  67 S3        29.75R
SAN ANTONIO    CLEAR     75  48  38 CALM      29.77R
STINSON FIELD  CLEAR     68  52  56 CALM      29.75R
*LA GRANGE     CLEAR     69  53  57 S3        29.75R
*GIDDINGS      CLEAR     64  56  77 CALM      29.77R
*GONZALES      CLEAR     71  54  56 S3        29.76R
$$

TXZ163>164-176>182-195>201-210>213-226-227-235-250500-
SOUTHEAST TEXAS

CITY           SKY/WX    TMP DP  RH WIND       PRES   REMARKS
COLLEGE STN    CLEAR     69  51  52 SE3       29.76R
*BRYAN         CLEAR     64  53  66 SE3       29.77R
*CALDWELL      NOT AVBL
*CROCKETT      CLEAR     57  55  94 CALM      29.79R
*BRENHAM       CLEAR     66  55  68 CALM      29.77R
HUNTSVILLE     CLEAR     64  54  69 CALM      29.77R
CONROE         CLEAR     58  56  93 CALM      29.77R
HOUSTON BUSH   CLEAR     65  52  62 CALM      29.77R
HOUSTON HOBBY  CLEAR     67  52  58 SE3       29.77R
*HOUSTON SW AP CLEAR     63  58  84 CALM      29.78S
PEARLAND       CLEAR     68  56  65 CALM      29.78R
HOUSTON HOOKS  CLEAR     62  55  77 CALM      29.77R
ELLINGTON FLD  CLEAR     72  48  43 S3        29.79R
SUGAR LAND     CLEAR     64  57  78 CALM      29.77R
*HOUSTON EXEC  MOCLDY    64  57  77 S6        29.78R
*CLEVELAND MUN CLEAR     59  58  94 CALM      29.78R
*WHARTON       CLEAR     65  59  81 CALM      29.78R
*COLUMBUS      FAIR      68  50  52 S3        29.78R
*EAGLE LAKE    CLEAR     67  62  83 S7        29.77R
$$

TXZ214>216-236>238-250500-
THE UPPER TEXAS COAST

CITY           SKY/WX    TMP DP  RH WIND       PRES   REMARKS
*ORANGE        PTCLDY    59  57  94 CALM      29.80R
PORT ARTHUR    PTCLDY    60  54  80 S5        29.77R
GALVESTON      CLEAR     75  58  55 CALM      29.78R
ANGLETON       CLEAR     64  60  87 CALM      29.78R
*BAY CITY      CLEAR     68  59  73 CALM      29.78R
PALACIOS       CLEAR     74  62  66 S8        29.77R
$$

TXZ229>234-239>247-250500-
TEXAS COASTAL BEND AND RIO GRANDE PLAINS

CITY           SKY/WX    TMP DP  RH WIND       PRES   REMARKS
VICTORIA       CLEAR     68  60  75 S7        29.78R
*BEEVILLE      CLEAR     67  61  79 S6        29.78R
ROCKPORT       CLEAR     75  60  59 S7        29.78R
*PORT ARANSAS  CLEAR     76  58  54 S13G18    29.78R
*PORT LAVACA   CLEAR     66  64  91 CALM      29.78R
*INGLESIDE     CLEAR     71  61  70 S7        29.78S
CORPUS CHRISTI CLEAR     67  59  75 S8        29.78R
CORPUS NAS     CLEAR     75  60  59 S12       29.78R
*ROBSTOWN      CLEAR     69  59  71 S7        29.79R
ALICE          CLEAR     70  53  54 S9        29.78R
KINGSVILLE NAS CLEAR     68  58  70 S9        29.78S
COTULLA        CLEAR     73  48  41 SE5       29.76R
*FAITH RANCH   CLEAR     75  46  35 SE6       29.76R
LAREDO         CLEAR     78  52  40 SE9       29.77R
$$

TXZ248>255-250500-
DEEP SOUTH TEXAS

CITY           SKY/WX    TMP DP  RH WIND       PRES   REMARKS
BROWNSVILLE    CLEAR     69  59  70 SE3       29.82R
PORT ISABEL    CLEAR     72  60  66 SE9       29.81R
*SOUTH PADRE   NOT AVBL
HARLINGEN      CLEAR     64  59  83 S8        29.81R
*HEBBRONVILLE  CLEAR     72  51  46 S8        29.80R
MCALLEN        CLEAR     73  56  54 SE10      29.81R
*WESLACO       CLEAR     71  53  53 S7        29.80R
FALFURRIAS     CLEAR     70  53  53 SE8       29.78S
EDINBURG       CLEAR     73  53  50 SE7       29.81R
*ZAPATA        CLEAR     74  53  47 SE3       29.76S
$$

TXZ213>215-236>238-242>244-246-247-251-254-255-250500-
CMAN STATIONS

STATION/POSITION TIME  TEMP    WIND        PRES    WAVE
                       AIR SEA DIR/SP/G            HT/PER
                 (UTC) (F)     (DEG/KT/KT) (MB)    (FT/S)
SABINE PASS      0330   74 80   20/  3/  4 1009.7
SEA RIM ST PARK  0300   70     330/  1/  2 1008.5
NORTH JETTY/GLS  0324      78   50/  6/  7 1007.5
EAGLE POINT      0324   75 78   20/  2/  3 1008.0
MORGANS POINT    0330   75 78   80/  2/  3 1007.8
MISSION/ARANSAS  0300   78                 1008.0
PORT O`CONNOR    0324   73     190/  7/  8 1008.0
PORT ARANSAS     0300   77 80  160/ 14/ 15 1008.2
MALAQUITE BEACH  0324   78 80  150/ 16/ 18 1008.9
BAFFIN BAY       0324   76 79              1008.8
PORT ISABEL      0324   75 84  170/  4/  6 1009.5
$$

GMZ080-GMZ150>470-250500-
OFFSHORE BUOY REPORTS

STATION/POSITION TIME  TEMP    WIND        PRES    WAVE
                       AIR SEA DIR/SP/G            HT/PER
                 (UTC) (F)     (DEG/KT/KT) (MB)    (FT/S)
20 E GALVESTON   0250   79 78  350/  8/  8 1007.8    1/ 7
90 E PT ARANSAS  0250   77 79  220/  4/  6 1008.4    2/ 8
35 NE PT MANSFLD 0350   77     160/ 14/ 16 1008.4    3/ 8
200 E PT ISABEL  0250   77 80   30/  8/ 10 1009.5    5/ 7
$$




USA.gov is the U.S. government's official web portal to all federal, state and local government web resources and services.